TimeCST,TemperatureF,Dew PointF,Humidity,Sea Level PressureIn,VisibilityMPH,Wind Direction,Wind SpeedMPH,Gust SpeedMPH,PrecipitationIn,Events,Conditions,WindDirDegrees,DateUTC
12:15 AM,24.8,15.8,69,30.15,10.0,East,20.7,25.3,N/A,,Mostly Cloudy,90,2013-02-22 06:15:00
12:55 AM,24.8,15.8,69,30.14,10.0,East,19.6,-,N/A,,Overcast,80,2013-02-22 06:55:00
1:15 AM,24.8,17.6,74,30.13,10.0,East,17.3,20.7,N/A,,Overcast,80,2013-02-22 07:15:00
1:35 AM,24.8,15.8,69,30.12,10.0,East,17.3,-,N/A,,Overcast,80,2013-02-22 07:35:00
1:55 AM,24.8,17.6,74,30.11,8.0,East,19.6,-,N/A,,Overcast,80,2013-02-22 07:55:00
2:15 AM,23.0,19.4,86,30.11,1.5,East,16.1,-,N/A,,Overcast,80,2013-02-22 08:15:00
2:35 AM,23.0,19.4,86,30.09,2.0,East,15.0,-,N/A,,Overcast,90,2013-02-22 08:35:00
2:55 AM,23.0,19.4,86,30.07,10.0,East,18.4,-,N/A,,Overcast,80,2013-02-22 08:55:00
3:15 AM,24.8,19.4,80,30.06,9.0,East,18.4,-,N/A,,Overcast,90,2013-02-22 09:15:00
3:35 AM,24.8,21.2,86,30.03,10.0,East,20.7,26.5,N/A,,Overcast,90,2013-02-22 09:35:00
3:55 AM,24.8,21.2,86,30.01,5.0,East,19.6,25.3,N/A,,Overcast,80,2013-02-22 09:55:00
4:15 AM,24.8,21.2,86,29.99,2.0,East,18.4,-,N/A,,Overcast,80,2013-02-22 10:15:00
4:35 AM,24.8,19.4,80,29.98,1.5,East,18.4,24.2,N/A,,Overcast,80,2013-02-22 10:35:00
4:55 AM,24.8,21.2,86,29.97,1.2,ENE,16.1,24.2,N/A,,Overcast,70,2013-02-22 10:55:00
5:15 AM,24.8,23.0,93,29.97,0.5,East,17.3,25.3,N/A,,Overcast,80,2013-02-22 11:15:00
5:35 AM,26.6,23.0,86,29.96,0.2,East,25.3,41.4,0.01,,Overcast,80,2013-02-22 11:35:00
5:55 AM,26.6,24.8,93,29.95,0.5,East,20.7,26.5,0.02,,Overcast,90,2013-02-22 11:55:00
6:15 AM,26.6,24.8,93,29.95,1.0,East,19.6,27.6,N/A,,Overcast,90,2013-02-22 12:15:00
6:35 AM,26.6,24.8,93,29.94,0.8,East,17.3,20.7,N/A,,Overcast,90,2013-02-22 12:35:00
6:55 AM,28.4,24.8,86,29.92,0.5,East,18.4,27.6,0.01,,Overcast,90,2013-02-22 12:55:00
7:15 AM,28.4,26.6,93,29.92,0.8,East,20.7,-,N/A,,Overcast,100,2013-02-22 13:15:00
7:35 AM,28.4,24.8,86,29.91,0.8,East,19.6,24.2,N/A,,Overcast,100,2013-02-22 13:35:00
7:55 AM,28.4,24.8,86,29.91,2.5,ESE,18.4,-,N/A,,Overcast,110,2013-02-22 13:55:00
8:15 AM,28.4,24.8,86,29.90,5.0,East,19.6,-,N/A,,Overcast,100,2013-02-22 14:15:00
8:35 AM,28.4,24.8,86,29.89,4.0,ESE,18.4,24.2,N/A,,Overcast,110,2013-02-22 14:35:00
8:55 AM,28.4,23.0,80,29.89,5.0,ESE,19.6,25.3,N/A,,Overcast,110,2013-02-22 14:55:00
9:15 AM,28.4,23.0,80,29.88,6.0,ESE,17.3,26.5,N/A,,Overcast,120,2013-02-22 15:15:00
9:35 AM,28.4,23.0,80,29.88,8.0,ESE,16.1,-,N/A,,Overcast,120,2013-02-22 15:35:00
9:55 AM,28.4,23.0,80,29.88,7.0,ESE,16.1,21.9,N/A,,Overcast,110,2013-02-22 15:55:00
10:15 AM,28.4,23.0,80,29.87,7.0,ESE,16.1,21.9,N/A,,Overcast,120,2013-02-22 16:15:00
10:35 AM,28.4,23.0,80,29.87,4.0,ESE,15.0,19.6,N/A,,Overcast,110,2013-02-22 16:35:00
10:55 AM,28.4,23.0,80,29.88,5.0,ESE,16.1,23.0,N/A,,Overcast,110,2013-02-22 16:55:00
11:15 AM,28.4,24.8,86,29.87,4.0,ESE,16.1,-,N/A,,Overcast,110,2013-02-22 17:15:00
11:35 AM,28.4,24.8,86,29.87,5.0,ESE,10.4,-,N/A,,Overcast,120,2013-02-22 17:35:00
11:55 AM,28.4,24.8,86,29.86,5.0,ESE,11.5,-,N/A,,Overcast,120,2013-02-22 17:55:00
12:15 PM,28.4,24.8,86,29.85,6.0,ESE,9.2,-,N/A,,Overcast,110,2013-02-22 18:15:00
12:35 PM,28.4,24.8,86,29.85,7.0,ESE,11.5,-,N/A,,Overcast,120,2013-02-22 18:35:00
12:55 PM,28.4,24.8,86,29.84,7.0,SE,10.4,-,N/A,,Overcast,130,2013-02-22 18:55:00
1:15 PM,28.4,24.8,86,29.83,6.0,ESE,11.5,-,N/A,,Overcast,120,2013-02-22 19:15:00
1:35 PM,28.4,24.8,86,29.82,6.0,ESE,12.7,-,N/A,,Overcast,110,2013-02-22 19:35:00
1:55 PM,28.4,24.8,86,29.81,5.0,East,11.5,-,N/A,,Overcast,100,2013-02-22 19:55:00
2:15 PM,28.4,24.8,86,29.81,7.0,East,11.5,-,N/A,,Overcast,100,2013-02-22 20:15:00
2:35 PM,28.4,24.8,86,29.80,3.0,East,13.8,-,0.01,,Overcast,100,2013-02-22 20:35:00
2:55 PM,28.4,24.8,86,29.81,2.0,East,12.7,-,0.01,,Overcast,100,2013-02-22 20:55:00
3:15 PM,28.4,24.8,86,29.80,3.0,East,11.5,-,N/A,,Overcast,100,2013-02-22 21:15:00
3:35 PM,28.4,24.8,86,29.80,5.0,East,11.5,-,N/A,,Overcast,90,2013-02-22 21:35:00
3:55 PM,28.4,24.8,86,29.81,9.0,East,12.7,-,N/A,,Overcast,90,2013-02-22 21:55:00
4:15 PM,28.4,24.8,86,29.81,9.0,East,11.5,-,N/A,,Overcast,90,2013-02-22 22:15:00
4:35 PM,28.4,24.8,86,29.81,4.0,East,11.5,-,N/A,,Overcast,90,2013-02-22 22:35:00
4:55 PM,28.4,24.8,86,29.81,2.0,East,9.2,-,0.01,,Overcast,80,2013-02-22 22:55:00
5:15 PM,28.4,24.8,86,29.81,1.8,ENE,6.9,-,N/A,,Overcast,70,2013-02-22 23:15:00
5:35 PM,28.4,24.8,86,29.80,2.5,East,6.9,-,0.01,,Overcast,80,2013-02-22 23:35:00
5:55 PM,28.4,24.8,86,29.80,5.0,East,9.2,-,0.01,,Overcast,80,2013-02-22 23:55:00
6:15 PM,28.4,24.8,86,29.81,8.0,East,8.1,-,N/A,,Overcast,80,2013-02-23 00:15:00
6:35 PM,28.4,24.8,86,29.80,9.0,East,8.1,-,N/A,,Overcast,90,2013-02-23 00:35:00
6:55 PM,28.4,26.6,93,29.80,6.0,East,6.9,-,N/A,,Overcast,80,2013-02-23 00:55:00
7:15 PM,28.4,26.6,93,29.80,9.0,East,6.9,-,N/A,,Overcast,90,2013-02-23 01:15:00
7:35 PM,28.4,26.6,93,29.79,7.0,East,6.9,-,N/A,,Overcast,90,2013-02-23 01:35:00
7:55 PM,30.2,26.6,86,29.79,8.0,ENE,5.8,-,N/A,,Overcast,70,2013-02-23 01:55:00
8:15 PM,28.4,26.6,93,29.79,5.0,Calm,Calm,-,0.01,,Overcast,0,2013-02-23 02:15:00
8:35 PM,28.4,26.6,93,29.79,4.0,NNW,6.9,-,0.01,,Overcast,330,2013-02-23 02:35:00
8:55 PM,28.4,26.6,93,29.79,4.0,NW,5.8,-,0.01,,Overcast,320,2013-02-23 02:55:00
9:15 PM,28.4,26.6,93,29.79,5.0,WNW,4.6,-,N/A,,Overcast,300,2013-02-23 03:15:00
9:35 PM,28.4,26.6,93,29.79,5.0,WSW,8.1,-,N/A,,Overcast,240,2013-02-23 03:35:00
9:55 PM,28.4,26.6,93,29.79,7.0,WSW,8.1,-,N/A,,Overcast,240,2013-02-23 03:55:00
10:15 PM,28.4,24.8,86,29.79,6.0,WSW,10.4,-,N/A,,Overcast,240,2013-02-23 04:15:00
10:35 PM,28.4,24.8,86,29.79,6.0,WSW,9.2,-,N/A,,Overcast,250,2013-02-23 04:35:00
10:55 PM,28.4,24.8,86,29.79,5.0,WSW,8.1,-,N/A,,Overcast,250,2013-02-23 04:55:00
11:15 PM,28.4,24.8,86,29.78,6.0,WSW,8.1,-,N/A,,Overcast,250,2013-02-23 05:15:00
11:35 PM,28.4,24.8,86,29.78,6.0,WSW,9.2,-,N/A,,Overcast,240,2013-02-23 05:35:00
11:55 PM,28.4,24.8,86,29.78,7.0,WSW,10.4,-,N/A,,Overcast,250,2013-02-23 05:55:00